TimeCDT,TemperatureF,Dew PointF,Humidity,Sea Level PressureIn,VisibilityMPH,Wind Direction,Wind SpeedMPH,Gust SpeedMPH,PrecipitationIn,Events,Conditions,WindDirDegrees,DateUTC
12:12 AM,64.4,60.8,88,29.69,10.0,Calm,Calm,-,N/A,,Overcast,0,2013-09-01 05:12:00
12:33 AM,62.6,60.8,94,29.71,10.0,North,3.5,-,N/A,Rain,Light Rain,350,2013-09-01 05:33:00
12:52 AM,62.6,60.8,94,29.69,10.0,Calm,Calm,-,N/A,,Mostly Cloudy,0,2013-09-01 05:52:00
1:12 AM,62.6,60.8,94,29.67,10.0,ESE,4.6,-,N/A,,Scattered Clouds,120,2013-09-01 06:12:00
1:33 AM,60.8,60.8,100,29.67,10.0,Calm,Calm,-,N/A,,Clear,0,2013-09-01 06:33:00
1:52 AM,60.8,60.8,100,29.67,7.0,Calm,Calm,-,N/A,,Scattered Clouds,0,2013-09-01 06:52:00
2:12 AM,60.8,60.8,100,29.67,10.0,Calm,Calm,-,N/A,,Scattered Clouds,0,2013-09-01 07:12:00
2:33 AM,60.8,59.0,94,29.68,2.0,Calm,Calm,-,N/A,,Mostly Cloudy,0,2013-09-01 07:33:00
2:52 AM,60.8,59.0,94,29.68,4.0,Calm,Calm,-,N/A,,Overcast,0,2013-09-01 07:52:00
3:12 AM,60.8,60.8,100,29.67,7.0,Calm,Calm,-,N/A,,Overcast,0,2013-09-01 08:12:00
3:33 AM,60.8,60.8,100,29.67,4.0,Calm,Calm,-,N/A,,Mostly Cloudy,0,2013-09-01 08:33:00
3:52 AM,60.8,59.0,94,29.67,1.2,Calm,Calm,-,N/A,,Overcast,0,2013-09-01 08:52:00
4:12 AM,60.8,60.8,100,29.68,10.0,WNW,8.1,-,N/A,,Overcast,290,2013-09-01 09:12:00
4:33 AM,60.8,59.0,94,29.69,10.0,WNW,5.8,-,N/A,,Overcast,300,2013-09-01 09:33:00
4:52 AM,60.8,57.2,88,29.69,10.0,NW,6.9,-,N/A,,Scattered Clouds,310,2013-09-01 09:52:00
5:12 AM,60.8,57.2,88,29.69,10.0,NW,6.9,-,N/A,,Mostly Cloudy,310,2013-09-01 10:12:00
5:33 AM,60.8,57.2,88,29.70,10.0,NW,6.9,-,N/A,,Overcast,320,2013-09-01 10:33:00
5:52 AM,60.8,57.2,88,29.71,10.0,NW,6.9,-,N/A,,Mostly Cloudy,310,2013-09-01 10:52:00
6:13 AM,60.8,57.2,88,29.71,10.0,NW,5.8,-,N/A,,Overcast,310,2013-09-01 11:13:00
6:32 AM,60.8,57.2,88,29.72,10.0,WNW,5.8,-,N/A,,Overcast,300,2013-09-01 11:32:00
6:53 AM,60.8,57.2,88,29.73,10.0,NW,4.6,-,N/A,,Overcast,310,2013-09-01 11:53:00
7:13 AM,60.8,57.2,88,29.74,10.0,NW,6.9,-,N/A,,Overcast,320,2013-09-01 12:13:00
7:33 AM,60.8,57.2,88,29.75,10.0,NW,3.5,-,N/A,,Overcast,310,2013-09-01 12:33:00
7:52 AM,60.8,59.0,94,29.75,10.0,Calm,Calm,-,N/A,,Overcast,0,2013-09-01 12:52:00
8:13 AM,60.8,59.0,94,29.75,10.0,WNW,4.6,-,N/A,,Overcast,300,2013-09-01 13:13:00
8:33 AM,60.8,59.0,94,29.76,10.0,NW,4.6,-,N/A,,Overcast,320,2013-09-01 13:33:00
8:52 AM,62.6,59.0,88,29.76,10.0,Calm,Calm,-,N/A,,Overcast,0,2013-09-01 13:52:00
9:13 AM,62.6,59.0,88,29.77,10.0,NW,4.6,-,N/A,,Overcast,310,2013-09-01 14:13:00
9:33 AM,62.6,59.0,88,29.77,10.0,NNW,5.8,-,N/A,,Overcast,340,2013-09-01 14:33:00
9:52 AM,62.6,57.2,82,29.78,10.0,NNW,10.4,-,N/A,,Mostly Cloudy,330,2013-09-01 14:52:00
10:13 AM,64.4,57.2,77,29.79,10.0,NNW,6.9,-,N/A,,Mostly Cloudy,340,2013-09-01 15:13:00
10:33 AM,64.4,57.2,77,29.79,10.0,NW,9.2,-,N/A,,Overcast,320,2013-09-01 15:33:00
10:53 AM,62.6,59.0,88,29.79,10.0,NW,4.6,-,N/A,,Overcast,310,2013-09-01 15:53:00
11:12 AM,66.2,59.0,78,29.79,10.0,NW,10.4,-,N/A,,Mostly Cloudy,310,2013-09-01 16:12:00
11:32 AM,66.2,57.2,73,29.80,10.0,NNW,10.4,16.1,N/A,,Mostly Cloudy,330,2013-09-01 16:32:00
11:53 AM,66.2,59.0,78,29.80,10.0,NW,9.2,-,N/A,,Overcast,310,2013-09-01 16:53:00
12:12 PM,64.4,57.2,77,29.81,10.0,NW,11.5,18.4,N/A,Rain,Light Rain,320,2013-09-01 17:12:00
12:32 PM,62.6,57.2,82,29.82,10.0,WNW,13.8,-,N/A,,Overcast,300,2013-09-01 17:32:00
12:53 PM,62.6,57.2,82,29.83,10.0,NW,6.9,19.6,N/A,,Overcast,310,2013-09-01 17:53:00
1:12 PM,60.8,55.4,82,29.84,10.0,NW,12.7,21.9,N/A,,Overcast,320,2013-09-01 18:12:00
1:32 PM,60.8,53.6,77,29.85,10.0,NW,10.4,24.2,N/A,,Overcast,320,2013-09-01 18:32:00
1:53 PM,60.8,53.6,77,29.86,10.0,NW,10.4,19.6,N/A,,Overcast,320,2013-09-01 18:53:00
2:12 PM,59.0,53.6,82,29.86,10.0,NNW,11.5,23.0,N/A,,Overcast,330,2013-09-01 19:12:00
2:32 PM,59.0,53.6,82,29.87,10.0,NW,16.1,21.9,N/A,,Overcast,320,2013-09-01 19:32:00
2:53 PM,60.8,51.8,72,29.87,10.0,NNW,12.7,21.9,N/A,,Overcast,330,2013-09-01 19:53:00
3:12 PM,57.2,51.8,82,29.88,10.0,NNW,13.8,21.9,N/A,,Overcast,330,2013-09-01 20:12:00
3:32 PM,57.2,51.8,82,29.88,10.0,NNW,10.4,19.6,N/A,,Overcast,330,2013-09-01 20:32:00
3:53 PM,57.2,51.8,82,29.89,10.0,NW,15.0,18.4,N/A,,Overcast,320,2013-09-01 20:53:00
4:12 PM,57.2,51.8,82,29.90,10.0,NW,6.9,17.3,N/A,,Overcast,320,2013-09-01 21:12:00
4:32 PM,57.2,51.8,82,29.90,10.0,NW,6.9,-,N/A,,Overcast,320,2013-09-01 21:32:00
4:52 PM,55.4,51.8,88,29.91,5.0,NW,6.9,17.3,N/A,,Overcast,320,2013-09-01 21:52:00
5:13 PM,55.4,51.8,88,29.91,4.0,NW,10.4,19.6,N/A,Rain,Light Rain,320,2013-09-01 22:13:00
5:32 PM,57.2,51.8,82,29.91,10.0,NW,8.1,-,N/A,,Overcast,320,2013-09-01 22:32:00
5:53 PM,57.2,50.0,77,29.92,10.0,NNW,12.7,18.4,N/A,,Overcast,330,2013-09-01 22:53:00
6:13 PM,57.2,50.0,77,29.92,10.0,NNW,9.2,18.4,N/A,,Overcast,330,2013-09-01 23:13:00
6:32 PM,55.4,50.0,82,29.92,10.0,North,6.9,20.7,N/A,,Overcast,350,2013-09-01 23:32:00
6:53 PM,55.4,50.0,82,29.93,10.0,NNW,9.2,-,N/A,,Mostly Cloudy,340,2013-09-01 23:53:00
7:13 PM,55.4,48.2,77,29.94,10.0,North,8.1,20.7,N/A,,Mostly Cloudy,350,2013-09-02 00:13:00
7:32 PM,55.4,50.0,82,29.94,10.0,NNW,6.9,-,N/A,,Mostly Cloudy,340,2013-09-02 00:32:00
7:53 PM,53.6,50.0,88,29.94,4.0,North,8.1,17.3,N/A,Rain,Rain,350,2013-09-02 00:53:00
8:12 PM,53.6,50.0,88,29.95,10.0,NNW,6.9,-,N/A,,Overcast,330,2013-09-02 01:12:00
8:33 PM,53.6,50.0,88,29.95,10.0,NNW,5.8,-,N/A,,Mostly Cloudy,340,2013-09-02 01:33:00
8:53 PM,53.6,50.0,88,29.96,5.0,North,5.8,-,N/A,,Overcast,350,2013-09-02 01:53:00
9:12 PM,51.8,48.2,88,29.97,10.0,NNW,5.8,-,N/A,,Overcast,340,2013-09-02 02:12:00
9:33 PM,51.8,48.2,88,29.97,10.0,North,5.8,-,N/A,,Overcast,350,2013-09-02 02:33:00
9:53 PM,51.8,48.2,88,29.98,4.0,North,3.5,-,N/A,Rain,Rain,350,2013-09-02 02:53:00
10:12 PM,51.8,48.2,88,29.98,7.0,North,3.5,-,N/A,,Light Drizzle,360,2013-09-02 03:12:00
10:33 PM,51.8,48.2,88,29.99,10.0,North,5.8,-,N/A,,Overcast,350,2013-09-02 03:33:00
10:53 PM,51.8,48.2,88,30.00,10.0,NNW,5.8,-,N/A,,Overcast,340,2013-09-02 03:53:00
11:12 PM,51.8,46.4,82,30.00,10.0,North,5.8,-,N/A,,Mostly Cloudy,350,2013-09-02 04:12:00
11:33 PM,50.0,46.4,87,30.00,10.0,Calm,Calm,-,N/A,,Scattered Clouds,0,2013-09-02 04:33:00
11:53 PM,50.0,46.4,87,30.00,10.0,Calm,Calm,-,N/A,,Mostly Cloudy,0,2013-09-02 04:53:00